Home > Weather > Charlottetown > Past weeks

Flag for Canada Weather for the Past 2 Weeks in Charlottetown, Prince Edward Island, Canada

Now
25 °F

Mostly cloudy.


Feels Like: 15 °F
Forecast: 13 / 25 °F
Wind: 9 mph from Northwest

Location: Charlottetown

Current Time: Feb 10, 2016 at 1:21:13 AM

Latest Report: Feb 10, 2016 at 12:00 AM


Visibility: 12 mi

Pressure: 29.41 "Hg

Humidity: 93%

Dew point: 23 °F

Location of CharlottetownLocation

Historic Weather in Charlottetown — Graph

°F

Charlottetown Temperature Yesterday

Maximum temperature yesterday: 27 °F (at 2:00 PM)
Minimum temperature yesterday: 23 °F (at 2:00 AM)
Average temperature yesterday: 24 °F

High & Low Weather Summary for the Past Weeks

 TemperatureHumidityPressure
High46 °F (Feb 1, 5:00 PM)100% (Jan 29, 8:00 AM)30.53 "Hg (Jan 29, 8:00 AM)
Low12 °F (Feb 3, 4:00 AM)35% (Feb 7, 6:00 PM)29.15 "Hg (Jan 29, 6:00 PM)
Average28 °F83%29.90 "Hg
* Reported Midnight between Jan 25 and Jan 26 — Midnight between Feb 9 and Feb 10, Charlottetown, Weather by CustomWeather, © 2016

Note: Actual official high and low records may vary slightly from our data, if they occured in-between our weather recording intervals... More about our weather records

Advertising

Charlottetown Weather History for the Previous 24 Hours

 ConditionsComfort  
Time TempWeatherWind HumidityBarometerVisibility
12:00 AM
Wed, Feb 10
25 °FMostly cloudy.9 mph93%29.41 "Hg12 mi
11:00 PM
Tue, Feb 9
25 °FLight mixture of precip. Mostly cloudy.8 mph93%29.42 "Hg12 mi
10:00 PM25 °FSnow flurries. Overcast.6 mph93%29.45 "Hg12 mi
9:00 PM25 °FSnow flurries. Overcast.2 mph93%29.47 "Hg12 mi
8:00 PM25 °FSnow flurries. Mostly cloudy.3 mph93%29.47 "Hg12 mi
7:00 PM25 °FLight snow. Mostly cloudy.8 mph93%29.53 "Hg12 mi
6:00 PM27 °FLight snow. Overcast.9 mph86%29.55 "Hg12 mi
5:00 PM25 °FLight snow. Mostly cloudy.13 mph93%29.54 "Hg12 mi
4:00 PM27 °FLight snow. Mostly cloudy.14 mph80%29.58 "Hg10 mi
3:00 PM27 °FLight snow. Mostly cloudy.14 mph80%29.61 "Hg10 mi
2:00 PM27 °FLight snow. Mostly cloudy.17 mph80%29.58 "Hg10 mi
1:00 PM25 °FLight snow. Mostly cloudy.18 mph86%29.57 "Hg3 mi
12:00 PM25 °FLight snow. Mostly cloudy.18 mph86%29.59 "Hg2 mi
11:00 AM25 °FLight snow. Mostly cloudy.20 mph86%29.60 "Hg1 mi
10:00 AM23 °FLight snow. Low clouds.22 mph93%29.59 "Hg1 mi
9:00 AM23 °FLight snow. Low clouds.23 mph93%29.58 "Hg1 mi
8:00 AM23 °FLight snow. Low clouds.22 mph93%29.58 "Hg1 mi
7:00 AM23 °FLight snow. Low clouds.26 mph93%29.56 "Hg1 mi
6:00 AM23 °FLight snow. Mostly cloudy.24 mph93%29.55 "Hg1 mi
5:00 AM23 °FLight snow. Mostly cloudy.25 mph93%29.56 "Hg1 mi
4:00 AM23 °FLight snow. Low clouds.30 mph93%29.54 "Hg1 mi
3:00 AM23 °FLight snow. Mostly cloudy.28 mph93%29.55 "Hg1 mi
2:00 AM23 °FLight snow. Mostly cloudy.30 mph93%29.56 "Hg1 mi
1:00 AM25 °FLight snow. Mostly cloudy.28 mph93%29.57 "Hg1 mi
Weather by CustomWeather, © 2016

See weather overviewHow to use our weather pages